Regional Weather Roundup
Issued by NWS

Home | Current Version | Previous Version | Text Only | Print | Product List | Glossary On
Versions: 1 2 3 4 5 6 7 8 9 10 11 12 13 14 15 16 17 18 19 20 21 22 23 24 25 26 27 28 29 30 31 32 33 34 35 36 37 38 39 40 41 42 43 44 45 46 47 48 49 50
000
ASCA42 TJSJ 191610
RWRPR
PUERTO RICO/U.S. VIRGIN ISLANDS HOURLY WEATHER ROUNDUP
NATIONAL WEATHER SERVICE SAN JUAN PR
1200 PM AST FRI DEC 19 2014

PRZ001-004-191700-
PUERTO RICO

CITY           SKY/WX    TMP DP  RH WIND       PRES   REMARKS
SAN JUAN LMM   MOSUNNY   82  70  65 E15       30.00F
AGUADILLA      MOSUNNY   82  70  65 E18G24    30.02F
CEIBA          MOSUNNY   84  68  58 NE8       30.03F
$$

PRZ006-007-191700-
U.S. VIRGIN ISLANDS

CITY           SKY/WX    TMP DP  RH WIND       PRES   REMARKS
$$

HOURLY WEATHER ROUNDUP FOR THE NEWS MEDIA

CITY           SKY/WX    TMP DP  RH WIND       PRES   REMARKS
ORLANDO        CLOUDY    65  45  48 N6        30.15F
NEW YORK       PTSUNNY   38  20  48 NW17G24   30.06F WCI  28
NEWARK         PTSUNNY   36  20  52 NW15      30.06F WCI  27
CHICAGO        CLOUDY    29  20  69 NW6       30.32R WCI  23
HARTFORD       CLOUDY    37  25  61 NW8       29.94F WCI  31
BOSTON         PTSUNNY   34  22  61 NW14G23   29.96S WCI  25
DALLAS         CLOUDY    46  45  93 N8        30.20S FOG
PHILADELPHIA   CLOUDY    40  24  53 NW13      30.10F WCI  32
LOS ANGELES    MOSUNNY   53  44  71 VRB5      30.22F
WASHINGTON DC  CLOUDY    35  23  61 NW13      30.18S WCI  26



USA.gov is the U.S. government's official web portal to all federal, state and local government web resources and services.